TimeMST,TemperatureF,Dew PointF,Humidity,Sea Level PressureIn,VisibilityMPH,Wind Direction,Wind SpeedMPH,Gust SpeedMPH,PrecipitationIn,Events,Conditions,WindDirDegrees,DateUTC
12:53 AM,17.1,12.0,81,29.83,10.0,SSE,3.5,-,N/A,,Clear,160,2012-12-08 07:53:00
1:53 AM,28.0,14.0,56,29.76,10.0,Variable,3.5,-,N/A,,Clear,0,2012-12-08 08:53:00
2:53 AM,33.1,17.1,52,29.69,10.0,WSW,19.6,-,N/A,,Clear,250,2012-12-08 09:53:00
4:53 AM,36.0,18.0,48,29.68,10.0,West,19.6,-,N/A,,Overcast,260,2012-12-08 11:53:00
5:53 AM,36.0,19.0,50,29.69,10.0,West,19.6,31.1,N/A,,Overcast,260,2012-12-08 12:53:00
6:53 AM,34.0,24.1,67,29.71,10.0,West,17.3,-,N/A,,Overcast,270,2012-12-08 13:53:00
7:11 AM,33.8,24.8,70,29.62,2.5,West,27.6,35.7,0.00,Snow,Light Snow,280,2012-12-08 14:11:00
7:31 AM,32.0,24.8,75,29.62,5.0,WNW,23.0,31.1,0.00,Snow,Light Snow,290,2012-12-08 14:31:00
7:53 AM,32.0,25.0,75,29.73,4.0,West,13.8,26.5,0.00,Snow,Light Snow,280,2012-12-08 14:53:00
7:55 AM,32.0,24.8,75,29.63,2.5,West,12.7,26.5,0.00,Snow,Light Snow,260,2012-12-08 14:55:00
8:04 AM,30.2,26.6,86,29.63,1.0,West,16.1,-,0.00,Snow,Light Snow,270,2012-12-08 15:04:00
8:26 AM,30.2,28.4,93,29.62,2.5,WSW,13.8,-,0.00,Snow,Light Snow,250,2012-12-08 15:26:00
8:33 AM,30.2,26.6,86,29.62,9.0,WSW,13.8,-,0.00,,Overcast,250,2012-12-08 15:33:00
8:53 AM,33.1,24.1,70,29.71,6.0,West,11.5,24.2,0.00,Snow,Light Snow,270,2012-12-08 15:53:00
9:53 AM,37.9,21.9,53,29.70,10.0,West,26.5,29.9,0.00,,Mostly Cloudy,270,2012-12-08 16:53:00
10:53 AM,41.0,17.1,38,29.68,10.0,WNW,27.6,35.7,N/A,,Mostly Cloudy,300,2012-12-08 17:53:00
11:06 AM,32.0,21.2,64,29.63,10.0,North,21.9,28.8,N/A,,Overcast,350,2012-12-08 18:06:00
11:53 AM,30.0,19.0,64,29.73,10.0,North,19.6,25.3,N/A,,Mostly Cloudy,10,2012-12-08 18:53:00
12:30 PM,28.4,19.4,69,29.63,3.0,North,20.7,27.6,0.00,Snow,Light Snow,360,2012-12-08 19:30:00
12:33 PM,28.4,19.4,69,29.63,1.8,North,16.1,27.6,0.00,Snow,Light Snow,10,2012-12-08 19:33:00
12:43 PM,28.4,21.2,74,29.63,0.8,NNE,17.3,-,0.00,Snow,Light Snow,20,2012-12-08 19:43:00
12:46 PM,28.4,19.4,69,29.64,0.8,North,17.3,-,0.00,Snow,Light Snow,10,2012-12-08 19:46:00
12:53 PM,27.0,21.0,78,29.77,0.8,North,15.0,-,0.00,Snow,Light Snow,10,2012-12-08 19:53:00
1:03 PM,26.6,21.2,80,29.65,0.5,North,12.7,20.7,0.00,Snow,Snow,10,2012-12-08 20:03:00
1:21 PM,26.6,23.0,86,29.67,1.0,North,15.0,21.9,0.00,Snow,Light Snow,350,2012-12-08 20:21:00
1:32 PM,26.6,21.2,80,29.68,0.8,NNW,23.0,28.8,0.00,Snow,Light Snow,330,2012-12-08 20:32:00
1:40 PM,26.6,21.2,80,29.69,0.8,NNW,18.4,28.8,0.00,Snow,Light Snow,330,2012-12-08 20:40:00
1:48 PM,24.8,21.2,86,29.69,0.2,NW,18.4,-,0.00,Fog-Snow,Heavy Snow,320,2012-12-08 20:48:00
1:53 PM,25.0,21.9,88,29.79,0.2,NW,16.1,-,0.00,Fog-Snow,Heavy Snow,320,2012-12-08 20:53:00
2:10 PM,24.8,21.2,86,29.71,0.2,NNW,23.0,31.1,0.00,Fog-Snow,Snow,330,2012-12-08 21:10:00
2:15 PM,24.8,21.2,86,29.71,0.2,NNW,20.7,31.1,0.00,Fog-Snow,Snow,330,2012-12-08 21:15:00
2:34 PM,-9999,-9999,N/A,29.72,1.0,NW,17.3,-,0.00,,Unknown,320,2012-12-08 21:34:00
2:47 PM,24.8,19.4,80,29.72,2.0,NW,11.5,-,0.00,Snow,Light Snow,320,2012-12-08 21:47:00
2:53 PM,25.0,19.9,81,29.80,8.0,NW,11.5,-,0.00,,Overcast,320,2012-12-08 21:53:00
3:49 PM,26.6,19.4,74,29.74,1.5,WNW,21.9,28.8,0.00,Snow,Light Snow,300,2012-12-08 22:49:00
3:53 PM,24.1,19.0,81,29.82,0.5,NW,23.0,32.2,0.00,Snow,Snow,320,2012-12-08 22:53:00
4:07 PM,21.2,19.4,93,29.76,0.2,NW,20.7,29.9,0.00,Fog-Snow,Snow,310,2012-12-08 23:07:00
4:17 PM,21.2,19.4,93,29.76,0.2,WNW,18.4,27.6,0.00,Fog-Snow,Snow,300,2012-12-08 23:17:00
4:23 PM,21.2,19.4,93,29.76,0.5,NW,17.3,-,0.00,Fog-Snow,Snow,310,2012-12-08 23:23:00
4:30 PM,-9999,-9999,N/A,29.77,1.0,NW,17.3,-,0.00,,Unknown,310,2012-12-08 23:30:00
4:36 PM,21.2,19.4,93,29.77,2.0,WNW,16.1,-,0.00,Snow,Light Snow,300,2012-12-08 23:36:00
4:53 PM,21.9,19.0,89,29.86,8.0,WNW,15.0,-,0.00,Snow,Light Snow,300,2012-12-08 23:53:00
5:19 PM,-9999,-9999,N/A,29.80,1.8,NW,13.8,21.9,0.00,,Unknown,320,2012-12-09 00:19:00
5:24 PM,21.2,19.4,93,29.80,2.0,NNW,13.8,-,0.00,Snow,Light Snow,330,2012-12-09 00:24:00
5:46 PM,21.2,19.4,93,29.82,2.0,NW,9.2,-,0.00,Snow,Light Snow,320,2012-12-09 00:46:00
5:53 PM,-9999,-9999,N/A,29.84,2.0,North,19.6,27.6,0.00,,Unknown,350,2012-12-09 00:53:00
5:56 PM,-9999,-9999,N/A,29.84,1.0,NNW,20.7,28.8,0.00,,Unknown,340,2012-12-09 00:56:00
6:05 PM,-9999,-9999,N/A,29.85,0.2,NNW,16.1,-,0.00,,Unknown,340,2012-12-09 01:05:00
6:09 PM,-9999,-9999,N/A,29.85,0.8,NNW,18.4,-,0.00,,Unknown,330,2012-12-09 01:09:00
6:11 PM,-9999,-9999,N/A,29.86,1.2,NNW,17.3,-,0.00,,Unknown,330,2012-12-09 01:11:00
6:20 PM,-9999,-9999,N/A,29.86,2.5,NNW,18.4,25.3,0.00,,Unknown,330,2012-12-09 01:20:00
6:27 PM,-9999,-9999,N/A,29.87,9.0,NNW,17.3,-,0.00,,Overcast,330,2012-12-09 01:27:00
6:34 PM,-9999,-9999,N/A,29.87,10.0,NNW,16.1,-,0.00,,Overcast,330,2012-12-09 01:34:00
6:53 PM,-9999,-9999,N/A,29.88,5.0,NNW,20.7,28.8,0.00,,Unknown,330,2012-12-09 01:53:00
7:53 PM,-9999,-9999,N/A,29.91,10.0,NNW,18.4,-,0.00,,Overcast,330,2012-12-09 02:53:00
8:53 PM,-9999,-9999,N/A,29.94,10.0,NW,23.0,29.9,N/A,,Mostly Cloudy,320,2012-12-09 03:53:00
9:53 PM,-9999,-9999,N/A,29.98,10.0,NW,15.0,-,N/A,,Overcast,310,2012-12-09 04:53:00
10:53 PM,-9999,-9999,N/A,30.01,10.0,NW,16.1,-,N/A,,Overcast,320,2012-12-09 05:53:00
11:53 PM,-9999,-9999,N/A,30.02,10.0,NW,18.4,-,N/A,,Overcast,320,2012-12-09 06:53:00